Location: Friendly Valley
(37.6901°N, 89.9107°W)
Time: 04:43:14
(UTC+00:00)

BlueWalker 3 - Visible Passes

Search period start: 07 October 2024 00:00
Search period end: 17 October 2024 00:00
Orbit: 473 x 485 km, 53.2° (Epoch: 06 October)

Date Brightness Start Highest point End Pass type
(mag) Time Alt. Az. Time Alt. Az. Time Alt. Az.
07 Oct 2.9 10:24:09 32° NNW 10:24:09 32° NNW 10:27:11 10° NNE visible
08 Oct 3.8 09:57:17 23° NNE 09:57:17 23° NNE 09:59:00 10° NNE visible
08 Oct 4.3 11:34:00 10° NNW 11:34:24 10° NNW 11:34:49 10° N visible
09 Oct 4.8 09:30:19 13° NNE 09:30:19 13° NNE 09:30:46 10° NE visible
09 Oct 4.2 11:05:06 10° NNW 11:06:03 11° NNW 11:07:00 10° N visible
10 Oct 4.2 10:37:28 11° NNW 10:37:39 11° NNW 10:38:57 10° N visible
11 Oct 4.5 10:10:19 11° N 10:10:19 11° N 10:10:48 10° N visible
15 Oct 4.6 11:33:22 10° N 11:34:02 10° NNE 11:34:41 10° NNE visible
